Skip Page Navigation
NASA JPL Caltech
NASA Logo - Jet Propulsion Laboratory + View the NASA Portal
+ Center for Near-Earth Object Studies
JPL Home Earth Solar System Stars & Galaxies Technology
JPL Solar System Dynamics
BODIES ORBITS EPHEMERIDES TOOLS PHYSICAL DATA DISCOVERY FAQ SITE MAP
IMPORTANT: The SSD Announcement email list is now available. Major changes are coming in the near future, including possible hostname and/or URL changes. To be notified of such changes, subscribe to this email list.

Please visit this page for more details.


JPL Small-Body Database Browser
Search: [ help ]  
71785 (2000 SY177)
Classification: Main-belt Asteroid          SPK-ID: 2071785
Ephemeris | Orbit Diagram | Orbital Elements | Mission Design | Physical Parameters | Discovery Circumstances ]

[ show orbit diagram ]
Orbital Elements at Epoch 2458600.5 (2019-Apr-27.0) TDB
Reference: JPL 19 (heliocentric ecliptic J2000)
 Element Value Uncertainty (1-sigma)   Units 
e .1166927949301039 5.8753e-08  
a 2.311351866214611 9.7091e-09 au
q 2.041633756879116 1.3669e-07 au
i 7.272015734271924 5.9499e-06 deg
node 350.9932585185131 2.8967e-05 deg
peri 207.8838188451247 3.3926e-05 deg
M 298.5040057123975 1.9335e-05 deg
tp 2458819.751135440498
(2019-Dec-02.25113544)
6.9367e-05 TDB
period 1283.504879837216
3.51
8.0873e-06
2.214e-08
d
yr
n .280481987762803 1.7673e-09 deg/d
Q 2.581069975550105 1.0842e-08 au
  Orbit Determination Parameters
   # obs. used (total)      1130  
   data-arc span      8729 days (23.90 yr)  
   first obs. used      1995-04-01  
   last obs. used      2019-02-23  
   planetary ephem.      DE431  
   SB-pert. ephem.      SB431-N16  
   condition code      0  
   norm. resid. RMS      .55533  
   source      ORB  
   producer      Otto Matic  
   solution date      2019-Jul-13 08:30:59  

Additional Information
 Earth MOID = 1.0437 au 
 Jupiter MOID = 2.3898 au 
 T_jup = 3.564 
[ show covariance matrix ]

Ephemeris | Orbit Diagram | Orbital Elements | Mission Design | Physical Parameters | Discovery Circumstances ]

Physical Parameter Table
Parameter Symbol Value Units Sigma Reference Notes
absolute magnitude H 15.1   n/a MPO381750  

71785 (2000 SY177)          Discovered 2000-Sep-28 by LINEAR at Socorro
Reference: 20031109/Numbers.arcLast Updated: 2004-04-19
Ephemeris | Orbit Diagram | Orbital Elements | Mission Design | Physical Parameters | Discovery Circumstances ]
ABOUT SSD CREDITS/AWARDS PRIVACY/COPYRIGHT GLOSSARY LINKS
FirstGov 2019-Oct-20 20:24 UT
(server date/time)  
NASA Home Page
Site Manager:   Ryan S. Park
Webmaster  Alan B. Chamberlin